Time,TemperatureF,DewpointF,PressureIn,WindDirection,WindDirectionDegrees,WindSpeedMPH,WindSpeedGustMPH,Humidity,HourlyPrecipIn,Conditions,Clouds,dailyrainin,SoftwareType,DateUTC
2013-02-01 00:03:00,27.0,10.0,29.70,WSW,242,2.0,6.0,49,0.00,,,0.01,,2013-02-01 05:03:00,
2013-02-01 00:12:00,27.0,10.0,29.70,WSW,242,2.0,6.0,49,0.00,,,0.01,,2013-02-01 05:12:00,
2013-02-01 00:22:00,27.0,10.0,29.70,WSW,248,1.0,10.0,49,0.00,,,0.00,,2013-02-01 05:22:00,
2013-02-01 00:32:00,26.0,9.0,29.70,West,263,3.0,9.0,49,0.00,,,0.94,,2013-02-01 05:32:00,
2013-02-01 00:42:00,26.0,9.0,29.70,West,263,3.0,9.0,49,0.00,,,0.94,,2013-02-01 05:42:00,
2013-02-01 00:52:00,26.0,9.0,29.71,WSW,247,5.0,9.0,49,0.00,,,0.94,,2013-02-01 05:52:00,
2013-02-01 01:02:00,26.0,9.0,29.71,WSW,240,3.0,9.0,48,0.00,,,0.93,,2013-02-01 06:02:00,
2013-02-01 01:11:00,26.0,9.0,29.71,WSW,240,3.0,9.0,48,0.00,,,0.93,,2013-02-01 06:11:00,
2013-02-01 01:22:00,26.0,9.0,29.71,WSW,245,2.0,16.0,49,0.00,,,0.89,,2013-02-01 06:22:00,
2013-02-01 01:32:00,26.0,9.0,29.72,WSW,257,3.0,8.0,49,0.00,,,0.82,,2013-02-01 06:32:00,
2013-02-01 01:42:00,26.0,9.0,29.72,WSW,257,3.0,8.0,49,0.00,,,0.82,,2013-02-01 06:42:00,
2013-02-01 01:52:00,26.0,9.0,29.72,WSW,253,3.0,10.0,49,0.00,,,0.81,,2013-02-01 06:52:00,
2013-02-01 02:02:00,26.0,10.0,29.72,WSW,250,4.0,7.0,50,0.00,,,0.80,,2013-02-01 07:02:00,
2013-02-01 02:12:00,26.0,10.0,29.72,West,264,3.0,8.0,51,0.00,,,0.78,,2013-02-01 07:12:00,
2013-02-01 02:22:00,26.0,10.0,29.72,West,264,3.0,8.0,51,0.00,,,0.78,,2013-02-01 07:22:00,
2013-02-01 02:32:00,26.0,11.0,29.72,West,277,2.0,5.0,52,0.00,,,0.77,,2013-02-01 07:32:00,
2013-02-01 02:42:00,26.0,11.0,29.72,West,277,2.0,5.0,52,0.00,,,0.77,,2013-02-01 07:42:00,
2013-02-01 02:51:00,26.0,11.0,29.72,WSW,247,3.0,6.0,52,0.00,,,0.75,,2013-02-01 07:51:00,
2013-02-01 03:01:00,26.0,11.0,29.73,WSW,252,2.0,6.0,53,0.00,,,0.72,,2013-02-01 08:01:00,
2013-02-01 03:11:00,26.0,11.0,29.73,WSW,252,2.0,6.0,53,0.00,,,0.72,,2013-02-01 08:11:00,
2013-02-01 03:21:00,26.0,11.0,29.73,WSW,241,3.0,7.0,53,0.00,,,0.72,,2013-02-01 08:21:00,
2013-02-01 03:32:00,26.0,12.0,29.72,WSW,248,1.0,6.0,54,0.00,,,0.69,,2013-02-01 08:32:00,
2013-02-01 03:42:00,26.0,12.0,29.72,WSW,248,1.0,6.0,54,0.00,,,0.69,,2013-02-01 08:42:00,
2013-02-01 03:52:00,25.0,11.0,29.72,SW,235,2.0,6.0,55,0.00,,,0.64,,2013-02-01 08:52:00,
2013-02-01 04:01:00,25.0,12.0,29.71,WSW,238,0.0,5.0,56,0.00,,,0.53,,2013-02-01 09:01:00,
2013-02-01 04:11:00,25.0,12.0,29.71,WSW,238,0.0,5.0,56,0.00,,,0.53,,2013-02-01 09:11:00,
2013-02-01 04:21:00,25.0,12.0,29.72,SW,235,1.0,4.0,56,0.00,,,0.48,,2013-02-01 09:21:00,
2013-02-01 04:32:00,25.0,12.0,29.72,WSW,241,1.0,5.0,57,0.00,,,0.08,,2013-02-01 09:32:00,
2013-02-01 04:42:00,25.0,12.0,29.72,WSW,241,1.0,5.0,57,0.00,,,0.08,,2013-02-01 09:42:00,
2013-02-01 04:51:00,25.0,12.0,29.72,SW,219,2.0,9.0,58,0.00,,,0.06,,2013-02-01 09:51:00,
2013-02-01 05:01:00,25.0,13.0,29.72,SW,236,1.0,12.0,59,0.00,,,0.06,,2013-02-01 10:01:00,
2013-02-01 05:11:00,25.0,13.0,29.72,SW,236,1.0,12.0,59,0.00,,,0.06,,2013-02-01 10:11:00,
2013-02-01 05:21:00,25.0,13.0,29.72,WSW,237,5.0,8.0,61,0.00,,,0.03,,2013-02-01 10:21:00,
2013-02-01 05:32:00,25.0,13.0,29.74,WSW,249,2.0,5.0,61,0.00,,,0.02,,2013-02-01 10:32:00,
2013-02-01 05:42:00,25.0,13.0,29.74,WSW,249,2.0,5.0,61,0.00,,,0.02,,2013-02-01 10:42:00,
2013-02-01 05:53:00,25.0,13.0,29.74,WNW,284,1.0,11.0,61,0.00,,,0.00,,2013-02-01 10:53:00,
2013-02-01 06:02:00,25.0,13.0,29.74,West,262,1.0,6.0,61,0.00,,,0.00,,2013-02-01 11:02:00,
2013-02-01 06:11:00,25.0,13.0,29.74,West,262,1.0,6.0,61,0.00,,,0.00,,2013-02-01 11:11:00,
2013-02-01 06:22:00,25.0,13.0,29.75,WSW,247,3.0,8.0,61,0.00,,,0.00,,2013-02-01 11:22:00,
2013-02-01 06:32:00,25.0,13.0,29.75,WSW,246,2.0,7.0,60,0.00,,,0.00,,2013-02-01 11:32:00,
2013-02-01 06:42:00,25.0,13.0,29.75,WSW,246,2.0,7.0,60,0.00,,,0.00,,2013-02-01 11:42:00,
2013-02-01 06:53:00,25.0,13.0,29.76,SW,225,0.0,3.0,60,0.00,,,0.00,,2013-02-01 11:53:00,
2013-02-01 07:03:00,25.0,13.0,29.77,West,262,1.0,4.0,60,0.00,,,0.00,,2013-02-01 12:03:00,
2013-02-01 07:12:00,25.0,13.0,29.77,West,262,1.0,4.0,60,0.00,,,0.00,,2013-02-01 12:12:00,
2013-02-01 07:23:00,25.0,13.0,29.78,WSW,238,2.0,5.0,61,0.00,,,0.00,,2013-02-01 12:23:00,
2013-02-01 07:32:00,24.0,12.0,29.78,WSW,246,3.0,7.0,59,0.00,,,0.00,,2013-02-01 12:32:00,
2013-02-01 07:42:00,24.0,12.0,29.78,WSW,246,3.0,7.0,59,0.00,,,0.00,,2013-02-01 12:42:00,
2013-02-01 07:52:00,24.0,11.0,29.79,WSW,258,2.0,5.0,58,0.00,,,0.00,,2013-02-01 12:52:00,
2013-02-01 08:02:00,25.0,12.0,29.80,West,272,1.0,5.0,56,0.00,,,0.00,,2013-02-01 13:02:00,
2013-02-01 08:11:00,25.0,12.0,29.80,West,272,1.0,5.0,56,0.00,,,0.00,,2013-02-01 13:11:00,
2013-02-01 08:22:00,25.0,11.0,29.80,West,262,2.0,10.0,55,0.00,,,0.00,,2013-02-01 13:22:00,
2013-02-01 08:33:00,26.0,11.0,29.80,West,272,1.0,8.0,53,0.00,,,0.00,,2013-02-01 13:33:00,
2013-02-01 08:42:00,26.0,11.0,29.80,West,272,1.0,8.0,53,0.00,,,0.00,,2013-02-01 13:42:00,
2013-02-01 08:52:00,27.0,12.0,29.79,West,259,1.0,4.0,52,0.00,,,1.11,,2013-02-01 13:52:00,
2013-02-01 09:03:00,27.0,11.0,29.78,SW,230,1.0,5.0,50,0.00,,,1.11,,2013-02-01 14:03:00,
2013-02-01 09:11:00,26.0,9.0,29.79,WNW,287,2.0,10.0,48,0.00,,,1.11,,2013-02-01 14:11:00,
2013-02-01 09:22:00,26.0,9.0,29.79,WNW,287,2.0,10.0,48,0.00,,,1.11,,2013-02-01 14:22:00,
2013-02-01 09:32:00,26.0,9.0,29.80,West,281,2.0,8.0,48,0.00,,,1.11,,2013-02-01 14:32:00,
2013-02-01 09:42:00,26.0,9.0,29.80,West,281,2.0,8.0,48,0.00,,,1.11,,2013-02-01 14:42:00,
2013-02-01 09:52:00,27.0,10.0,29.80,West,260,2.0,9.0,48,0.00,,,1.11,,2013-02-01 14:52:00,
2013-02-01 10:02:00,27.0,10.0,29.80,West,274,3.0,9.0,48,0.00,,,1.11,,2013-02-01 15:02:00,
2013-02-01 10:12:00,27.0,9.0,29.81,NW,304,1.0,6.0,46,0.00,,,1.11,,2013-02-01 15:12:00,
2013-02-01 10:22:00,27.0,9.0,29.81,NW,304,1.0,6.0,46,0.00,,,1.11,,2013-02-01 15:22:00,
2013-02-01 10:33:00,29.0,10.0,29.82,NNW,343,1.0,5.0,45,0.00,,,1.11,,2013-02-01 15:33:00,
2013-02-01 10:42:00,29.0,10.0,29.82,NNW,343,1.0,5.0,45,0.00,,,1.11,,2013-02-01 15:42:00,
2013-02-01 10:52:00,29.0,10.0,29.82,NNW,327,1.0,8.0,45,0.00,,,1.11,,2013-02-01 15:52:00,
2013-02-01 11:03:00,30.0,9.0,29.80,ENE,59,0.0,7.0,41,0.00,,,1.11,,2013-02-01 16:03:00,
2013-02-01 11:11:00,29.0,8.0,29.81,WSW,253,3.0,9.0,41,0.00,,,1.11,,2013-02-01 16:11:00,
2013-02-01 11:22:00,29.0,8.0,29.81,WSW,253,3.0,9.0,41,0.00,,,1.11,,2013-02-01 16:22:00,
2013-02-01 11:33:00,29.0,7.0,29.81,West,270,2.0,6.0,39,0.00,,,1.11,,2013-02-01 16:33:00,
2013-02-01 11:43:00,28.0,7.0,29.80,WNW,295,3.0,8.0,41,0.00,,,1.11,,2013-02-01 16:43:00,
2013-02-01 11:52:00,28.0,7.0,29.80,WNW,295,3.0,8.0,41,0.00,,,1.11,,2013-02-01 16:52:00,
2013-02-01 12:02:00,29.0,7.0,29.80,NE,47,2.0,6.0,39,0.00,,,1.11,,2013-02-01 17:02:00,
2013-02-01 12:12:00,28.0,6.0,29.80,WSW,254,1.0,8.0,38,0.00,,,1.11,,2013-02-01 17:12:00,
2013-02-01 12:22:00,28.0,6.0,29.80,WSW,254,1.0,8.0,38,0.00,,,1.11,,2013-02-01 17:22:00,
2013-02-01 12:32:00,28.0,8.0,29.80,WNW,283,3.0,11.0,42,0.00,,,1.11,,2013-02-01 17:32:00,
2013-02-01 12:42:00,28.0,8.0,29.80,WNW,283,3.0,11.0,42,0.00,,,1.11,,2013-02-01 17:42:00,
2013-02-01 12:53:00,29.0,8.0,29.79,SW,231,1.0,8.0,40,0.00,,,1.11,,2013-02-01 17:53:00,
2013-02-01 13:03:00,29.0,7.0,29.79,North,8,1.0,8.0,38,0.00,,,1.11,,2013-02-01 18:03:00,
2013-02-01 13:12:00,29.0,7.0,29.79,North,8,1.0,8.0,38,0.00,,,1.11,,2013-02-01 18:12:00,
2013-02-01 13:22:00,29.0,6.0,29.80,NW,319,2.0,7.0,37,0.00,,,1.11,,2013-02-01 18:22:00,
2013-02-01 13:32:00,30.0,5.0,29.80,West,273,3.0,12.0,34,0.00,,,1.11,,2013-02-01 18:32:00,
2013-02-01 13:42:00,30.0,5.0,29.80,West,273,3.0,12.0,34,0.00,,,1.11,,2013-02-01 18:42:00,
2013-02-01 13:53:00,30.0,6.0,29.80,West,274,4.0,11.0,36,0.00,,,1.11,,2013-02-01 18:53:00,
2013-02-01 14:03:00,30.0,5.0,29.81,NNE,21,4.0,14.0,34,0.00,,,1.11,,2013-02-01 19:03:00,
2013-02-01 14:12:00,30.0,5.0,29.81,NNE,21,4.0,14.0,34,0.00,,,1.11,,2013-02-01 19:12:00,
2013-02-01 14:21:00,31.0,3.0,29.82,West,275,4.0,11.0,30,0.00,,,1.11,,2013-02-01 19:21:00,
2013-02-01 14:32:00,29.0,7.0,29.83,West,275,3.0,13.0,39,0.00,,,1.11,,2013-02-01 19:32:00,
2013-02-01 14:42:00,29.0,7.0,29.83,West,275,3.0,13.0,39,0.00,,,1.11,,2013-02-01 19:42:00,
2013-02-01 14:51:00,28.0,5.0,29.84,WSW,257,2.0,7.0,36,0.00,,,1.11,,2013-02-01 19:51:00,
2013-02-01 15:02:00,29.0,4.0,29.84,SSE,165,1.0,9.0,34,0.00,,,1.11,,2013-02-01 20:02:00,
2013-02-01 15:11:00,29.0,5.0,29.85,NNW,333,1.0,10.0,36,0.00,,,1.11,,2013-02-01 20:11:00,
2013-02-01 15:21:00,29.0,5.0,29.85,NNW,333,1.0,10.0,36,0.00,,,1.11,,2013-02-01 20:21:00,
2013-02-01 15:32:00,29.0,5.0,29.85,SW,233,2.0,12.0,35,0.00,,,1.11,,2013-02-01 20:32:00,
2013-02-01 15:42:00,29.0,6.0,29.86,West,266,4.0,10.0,37,0.00,,,1.11,,2013-02-01 20:42:00,
2013-02-01 15:52:00,29.0,6.0,29.86,West,266,4.0,10.0,37,0.00,,,1.11,,2013-02-01 20:52:00,
2013-02-01 16:02:00,28.0,6.0,29.86,West,269,3.0,15.0,39,0.00,,,1.11,,2013-02-01 21:02:00,
2013-02-01 16:12:00,28.0,6.0,29.86,West,269,3.0,15.0,39,0.00,,,1.11,,2013-02-01 21:12:00,
2013-02-01 16:22:00,28.0,5.0,29.89,WNW,292,1.0,6.0,36,0.00,,,1.11,,2013-02-01 21:22:00,
2013-02-01 16:32:00,28.0,5.0,29.89,WNW,292,1.0,6.0,36,0.00,,,1.11,,2013-02-01 21:32:00,
2013-02-01 16:42:00,28.0,5.0,29.89,WNW,292,1.0,6.0,36,0.00,,,1.11,,2013-02-01 21:42:00,
2013-02-01 16:52:00,27.0,2.0,29.91,WSW,240,2.0,10.0,34,0.00,,,1.11,,2013-02-01 21:52:00,
2013-02-01 17:02:00,26.0,2.0,29.93,SW,229,2.0,7.0,34,0.00,,,1.11,,2013-02-01 22:02:00,
2013-02-01 17:11:00,26.0,2.0,29.93,SW,229,2.0,7.0,34,0.00,,,1.11,,2013-02-01 22:11:00,
2013-02-01 17:21:00,26.0,3.0,29.94,West,265,1.0,7.0,36,0.00,,,1.11,,2013-02-01 22:21:00,
2013-02-01 17:32:00,26.0,6.0,29.95,NNE,19,2.0,6.0,42,0.00,,,1.11,,2013-02-01 22:32:00,
2013-02-01 17:42:00,26.0,6.0,29.95,NNE,19,2.0,6.0,42,0.00,,,1.11,,2013-02-01 22:42:00,
2013-02-01 17:51:00,25.0,4.0,29.96,West,275,2.0,9.0,40,0.00,,,1.11,,2013-02-01 22:51:00,
2013-02-01 18:02:00,25.0,3.0,29.97,NW,307,0.0,7.0,38,0.00,,,1.11,,2013-02-01 23:02:00,
2013-02-01 18:11:00,25.0,3.0,29.97,NW,307,0.0,7.0,38,0.00,,,1.11,,2013-02-01 23:11:00,
2013-02-01 18:22:00,25.0,2.0,29.99,NNW,336,2.0,8.0,36,0.00,,,1.11,,2013-02-01 23:22:00,
2013-02-01 18:32:00,24.0,1.0,30.00,NW,306,2.0,8.0,36,0.00,,,1.11,,2013-02-01 23:32:00,
2013-02-01 18:42:00,24.0,1.0,30.00,NW,306,2.0,8.0,36,0.00,,,1.11,,2013-02-01 23:42:00,
2013-02-01 18:52:00,24.0,2.0,30.01,West,278,2.0,13.0,38,0.00,,,1.11,,2013-02-01 23:52:00,
2013-02-01 19:02:00,24.0,3.0,30.02,SE,124,0.0,6.0,39,0.00,,,1.11,,2013-02-02 00:02:00,
2013-02-01 19:11:00,24.0,3.0,30.02,SE,124,0.0,6.0,39,0.00,,,1.11,,2013-02-02 00:11:00,
2013-02-01 19:21:00,24.0,4.0,30.03,WNW,300,1.0,6.0,41,0.00,,,1.11,,2013-02-02 00:21:00,
2013-02-01 19:32:00,23.0,3.0,30.03,SE,134,0.0,3.0,42,0.00,,,1.11,,2013-02-02 00:32:00,
2013-02-01 19:42:00,23.0,3.0,30.03,SE,134,0.0,3.0,42,0.00,,,1.11,,2013-02-02 00:42:00,
2013-02-01 19:52:00,23.0,3.0,30.05,West,265,3.0,7.0,42,0.00,,,1.11,,2013-02-02 00:52:00,
2013-02-01 20:02:00,23.0,4.0,30.05,WNW,291,0.0,3.0,43,0.00,,,1.11,,2013-02-02 01:02:00,
2013-02-01 20:11:00,23.0,4.0,30.05,WNW,291,0.0,3.0,43,0.00,,,1.11,,2013-02-02 01:11:00,
2013-02-01 20:21:00,23.0,4.0,30.06,WSW,252,1.0,6.0,43,0.00,,,1.11,,2013-02-02 01:21:00,
2013-02-01 20:32:00,23.0,5.0,30.06,WNW,284,0.0,4.0,45,0.00,,,1.11,,2013-02-02 01:32:00,
2013-02-01 20:42:00,23.0,5.0,30.06,WNW,284,0.0,4.0,45,0.00,,,1.11,,2013-02-02 01:42:00,
2013-02-01 20:52:00,22.0,4.0,30.07,West,275,2.0,7.0,46,0.00,,,1.11,,2013-02-02 01:52:00,
2013-02-01 21:01:00,22.0,5.0,30.08,West,277,1.0,5.0,48,0.00,,,1.11,,2013-02-02 02:01:00,
2013-02-01 21:11:00,22.0,5.0,30.08,West,277,1.0,5.0,48,0.00,,,1.11,,2013-02-02 02:11:00,
2013-02-01 21:21:00,22.0,5.0,30.09,NW,304,0.0,2.0,48,0.00,,,1.11,,2013-02-02 02:21:00,
2013-02-01 21:32:00,22.0,6.0,30.09,West,265,2.0,4.0,49,0.00,,,1.11,,2013-02-02 02:32:00,
2013-02-01 21:42:00,22.0,6.0,30.09,West,265,2.0,4.0,49,0.00,,,1.11,,2013-02-02 02:42:00,
2013-02-01 21:52:00,22.0,6.0,30.09,West,275,0.0,4.0,49,0.00,,,1.11,,2013-02-02 02:52:00,
2013-02-01 22:02:00,22.0,6.0,30.09,West,275,0.0,4.0,50,0.00,,,1.11,,2013-02-02 03:02:00,
2013-02-01 22:11:00,22.0,8.0,30.10,West,268,1.0,4.0,53,0.00,,,1.11,,2013-02-02 03:11:00,
2013-02-01 22:22:00,22.0,8.0,30.10,West,268,1.0,4.0,53,0.00,,,1.11,,2013-02-02 03:22:00,
2013-02-01 22:32:00,21.0,7.0,30.11,West,278,0.0,4.0,55,0.00,,,1.11,,2013-02-02 03:32:00,
2013-02-01 22:42:00,21.0,8.0,30.11,WSW,258,1.0,8.0,56,0.00,,,1.11,,2013-02-02 03:42:00,
2013-02-01 22:52:00,21.0,8.0,30.11,WSW,258,1.0,8.0,56,0.00,,,1.11,,2013-02-02 03:52:00,
2013-02-01 23:02:00,21.0,9.0,30.12,NW,319,1.0,5.0,58,0.00,,,1.11,,2013-02-02 04:02:00,
2013-02-01 23:11:00,21.0,9.0,30.12,NW,319,1.0,5.0,58,0.00,,,1.11,,2013-02-02 04:11:00,
2013-02-01 23:21:00,21.0,9.0,30.12,West,264,1.0,8.0,59,0.00,,,1.11,,2013-02-02 04:21:00,
2013-02-01 23:32:00,21.0,9.0,30.12,WNW,283,2.0,8.0,60,0.00,,,1.11,,2013-02-02 04:32:00,
2013-02-01 23:42:00,21.0,9.0,30.12,WNW,283,2.0,8.0,60,0.00,,,1.11,,2013-02-02 04:42:00,
2013-02-01 23:51:00,21.0,10.0,30.13,WSW,239,1.0,7.0,61,0.00,,,1.11,,2013-02-02 04:51:00,